Powrót do katalogu

FOSSASAT2E19

TAT-E

AktywnyŁącznośćSSO
NORAD 62676·PAYLOAD·🇪🇸 Spain

Wystrzelony Jan 14, 2025 z Vandenberg Space Force Base

Loading…

Następne Przeloty (najbliższe 24 godziny)

TLE

ŚwieżeSource: Space-Track

Epoka: Sep 13, 2026, 18:30 UTC

1 62676U 25009BV  26256.77131062  .00001897  00000-0  87281-4 0  9996
2 62676  97.3903 333.4619 0006071  42.9213 317.2496 15.21537592 92164

Śledź FOSSASAT2E19 w czasie rzeczywistym z AllMySat

Download on the App Store